Location: Newark
(34.0131°N, 4.3314°W)
Time: 03:28:24
(UTC+00:00)

Courier 1B - Pass Details

Date: 24 October 2019
Orbit: 963 x 1209 km, 28.3° (Epoch: 13 November)

Event Time Altitude Azimuth Distance (km) Brightness Sun altitude
Rises 17:59:26 0° 258° (WSW) 4,058 13.6 -6.2°
Reaches altitude 10° 18:02:17 10° 254° (WSW) 3,115 11.9 -6.7°
Maximum altitude 18:09:53 58° 178° (S) 1,387 8.4 -8.3°
Drops below altitude 10° 18:17:32 10° 101° (ESE) 3,126 9.5 -9.9°
Enters shadow 18:17:38 10° 101° (ESE) 3,157 9.6 -9.9°
